Weather History for PPIZ - April, 2014

Change the Weather History Date:

Monday, April 7, 2014

  Actual Average Record
Temperature  
Mean Temperature -12 °F -  
Max Temperature -6 °F 9 °F 75 °F (2001)
Min Temperature -18 °F -1 °F -26 °F (2013)
Degree Days  
Heating Degree Days 77    
Moisture  
Dew Point -18 °F    
Average Humidity 78    
Maximum Humidity 84    
Minimum Humidity 70    
Precipitation  
Precipitation 0.00 in - - ()
Sea Level Pressure  
Sea Level Pressure 29.92 in    
Wind  
Wind Speed 8 mph (SW)    
Max Wind Speed 10 mph    
Max Gust Speed -    
Visibility 7 miles    
Events Snow    
Averages and records for this station are not official NWS values.
T = Trace of Precipitation, MM = Missing Value Source: NWS Daily Summary

Daily Weather History Graph

Daily Weather History Graph

Search for Another Location

Airport or City:

Trip Planner

Search our weather history database for the weather conditions in past years. The results will help you decide how hot, cold, wet, or windy it might be!

Date:

Astronomy

Apr. 07, 2014 Rise Set
Actual Time 7:26 AM AKDT 10:24 PM AKDT
Civil Twilight 6:16 AM AKDT 11:35 PM AKDT
Nautical Twilight 4:18 AM AKDT 1:40 AM AKDT
Astronomical Twilight Sun does not set Sun does not set
Moon 11:57 AM AKDT (4/7) 6:48 AM AKDT (4/7)
Length of Visible Light 17h 18m
Length of Day
14h 57m
First Quarter, 55% of the Moon is Illuminated
Apr 7
First Quarter
Apr 14
Full
Apr 21
Last Quarter
Apr 28
New
May 6
First Quarter

Hourly Weather History & Observations

Time (AKDT) Temp. Windchill Dew Point Humidity Pressure Visibility Wind Dir Wind Speed Gust Speed Precip Events Conditions
12:22 AM -18.4 °F -36.6 °F -23.8 °F 76% 29.94 in 10.0 mi South 8.1 mph - N/A   Mostly Cloudy
12:45 AM -18.4 °F -37.9 °F -23.8 °F 76% 29.93 in 5.0 mi South 9.2 mph - N/A   Haze
12:56 AM -18.4 °F -37.9 °F -23.8 °F 76% 29.93 in 7.0 mi South 9.2 mph - N/A   Overcast
1:45 AM -18.4 °F -37.9 °F -23.8 °F 76% 29.94 in 4.0 mi South 9.2 mph - N/A   Haze
1:56 AM -17.9 °F -37.2 °F -24.0 °F 74% 29.95 in 3.0 mi South 9.2 mph - N/A   Haze
2:43 AM -16.6 °F -35.7 °F -22.0 °F 76% 29.93 in 10.0 mi South 9.2 mph - N/A   Overcast
2:56 AM -15.9 °F -34.8 °F -22.0 °F 74% 29.94 in 10.0 mi South 9.2 mph - N/A   Overcast
3:10 AM -16.6 °F -35.7 °F -23.8 °F 70% 29.93 in 10.0 mi South 9.2 mph - N/A   Mostly Cloudy
3:18 AM -18.4 °F -37.9 °F -23.8 °F 76% 29.93 in 10.0 mi South 9.2 mph - N/A   Scattered Clouds
3:41 AM -18.4 °F -36.6 °F -23.8 °F 76% 29.93 in 10.0 mi South 8.1 mph - N/A   Mostly Cloudy
3:56 AM -16.6 °F -35.7 °F -22.0 °F 76% 29.92 in 10.0 mi South 9.2 mph - N/A   Overcast
4:28 AM -14.8 °F -33.5 °F -18.4 °F 84% 29.92 in 3.0 mi South 9.2 mph - 0.00 in Snow Light Snow
4:56 AM -13.0 °F -31.3 °F -17.9 °F 79% 29.93 in 2.5 mi South 9.2 mph - 0.00 in Snow Light Snow
5:06 AM -13.0 °F -32.4 °F -18.4 °F 77% 29.91 in 3.0 mi South 10.4 mph - 0.00 in Snow Light Snow
5:15 AM -11.2 °F -30.1 °F -16.6 °F 77% 29.91 in 1.8 mi South 10.4 mph - 0.00 in Snow Light Snow
5:23 AM -11.2 °F -29.0 °F -16.6 °F 77% 29.91 in 3.0 mi South 9.2 mph - 0.00 in Snow Light Snow
5:56 AM -13.0 °F - -17.9 °F 79% 29.93 in 10.0 mi North - - 0.00 in   Mostly Cloudy
6:56 AM -16.6 °F -35.7 °F -20.2 °F 84% 29.91 in 6.0 mi South 9.2 mph - N/A   Haze
7:56 AM -17.9 °F -34.5 °F -22.9 °F 78% 29.92 in 10.0 mi South 6.9 mph - N/A   Clear
8:56 AM -18.9 °F -37.2 °F -24.9 °F 74% 29.91 in 5.0 mi SSW 8.1 mph - N/A   Haze
9:56 AM -15.9 °F -33.5 °F -22.0 °F 74% 29.91 in 4.0 mi SW 8.1 mph - N/A   Haze
10:56 AM -11.9 °F -29.9 °F -17.0 °F 78% 29.91 in 10.0 mi WSW 9.2 mph - N/A   Clear
11:47 AM -11.2 °F -26.4 °F -16.6 °F 77% 29.90 in 7.0 mi WSW 6.9 mph - N/A   Partly Cloudy
11:56 AM -9.9 °F -26.3 °F -15.0 °F 78% 29.92 in 9.0 mi West 8.1 mph - N/A   Clear
12:08 PM -9.4 °F -25.6 °F -14.8 °F 77% 29.90 in 5.0 mi West 8.1 mph - N/A   Haze
12:19 PM -9.4 °F -25.6 °F -14.8 °F 77% 29.90 in 2.0 mi West 8.1 mph - N/A   Scattered Clouds
12:35 PM -9.4 °F -26.8 °F -14.8 °F 77% 29.91 in 4.0 mi West 9.2 mph - N/A   Haze
12:56 PM -9.4 °F -26.8 °F -14.8 °F 77% 29.90 in 2.5 mi West 9.2 mph - N/A   Haze
1:04 PM -9.4 °F -25.6 °F -14.8 °F 77% 29.90 in 2.5 mi WNW 8.1 mph - N/A   Scattered Clouds
1:20 PM -9.4 °F -24.3 °F -14.8 °F 77% 29.91 in 10.0 mi West 6.9 mph - N/A   Partly Cloudy
1:56 PM -8.0 °F -22.5 °F -13.0 °F 79% 29.93 in 10.0 mi West 6.9 mph - N/A   Clear
2:56 PM -8.0 °F -23.9 °F -11.9 °F 83% 29.93 in 10.0 mi West 8.1 mph - N/A   Partly Cloudy
3:56 PM -6.9 °F -23.7 °F -11.9 °F 79% 29.93 in 10.0 mi West 9.2 mph - N/A   Scattered Clouds
4:56 PM -6.9 °F -21.2 °F -11.9 °F 79% 29.93 in 10.0 mi West 6.9 mph - N/A   Clear
5:56 PM -6.9 °F -21.2 °F -11.9 °F 79% 29.93 in 7.0 mi West 6.9 mph - N/A   Clear
6:56 PM -8.9 °F -22.1 °F -13.0 °F 82% 29.93 in 10.0 mi WNW 5.8 mph - N/A   Clear
7:56 PM -8.9 °F -20.2 °F -13.0 °F 82% 29.93 in 10.0 mi WNW 4.6 mph - N/A   Clear
8:56 PM -8.9 °F - -13.0 °F 82% 29.92 in - Calm Calm - N/A   Clear
9:56 PM -13.0 °F - -18.4 °F 77% 29.91 in - Calm Calm - N/A   Clear
10:56 PM -13.9 °F - -18.9 °F 78% 29.93 in 10.0 mi Calm Calm - N/A   Clear
11:56 PM -17.0 °F - -22.9 °F 74% 29.93 in - Calm Calm - N/A   Clear